* Astronomy

Members Login
Username 
 
Password 
    Remember Me  
Post Info TOPIC: Asteroid 2012 BY76


L

Posts: 131433
Date:
Asteroid 2012 BY76
Permalink  
 


Orbital elements:
2012 BY76                                                Earth MOID = 0.0492 AU
Epoch 2012 Mar. 14.0 TT = JDT 2456000.5                 MPC
M  64.55226              (2000.0)            P               Q
n   0.58200475     Peri.  272.10172     +0.59132080     -0.80498769
a   1.4207523      Node   141.51400     +0.76732115     +0.54319545
e   0.3654954      Incl.    4.45291     +0.24810877     +0.23860747
P   1.69           H   25.6           G   0.15           U   8

MPEC 2012 - B80



__________________
Page 1 of 1  sorted by
 
Quick Reply

Please log in to post quick replies.



Create your own FREE Forum
Report Abuse
Powered by ActiveBoard